Simultaneous Nadir Overpasses (SNOs) Predictions

Prediction of SNOs between METOP-C and LANDSAT-8 Satellite Orbit:

Table of predicted SNOs for the next 14.0 days since TLE Epoch: 12/4/2021
Index Date (METOP-C) Time (METOP-C) Lat,Lon (METOP-C) SZA (METOP-C ) Date (LANDSAT-8) Time (LANDSAT-8) Lat,Lon (LANDSAT-8) SZA (LANDSAT-8 ) Distance(km) Time Diff (sec)
1 12/04/2021 17:30:07 -81.06, 135.93 74.58 12/04/2021 17:31:19 -81.06, 136.08 74.54 2.59 72
2 12/04/2021 18:20:46 81.09, -55.91 105.53 12/04/2021 18:20:44 81.09, -55.84 105.54 1.19 2
3 12/04/2021 19:11:07 -81.28, 118.82 73.56 12/04/2021 19:09:53 -81.46, 118.52 73.50 20.49 74
4 12/07/2021 13:04:28 -81.08,-157.00 74.20 12/07/2021 13:05:33 -81.08,-157.07 74.17 1.15 65
5 12/07/2021 13:55:09 81.09, 10.44 105.83 12/07/2021 13:54:59 81.09, 10.62 105.84 3.21 10
6 12/10/2021 08:38:50 -81.08, -90.71 73.97 12/10/2021 08:39:47 -81.08, -90.63 73.93 1.60 57
7 12/10/2021 09:29:29 81.11, 77.51 106.15 12/10/2021 09:29:12 81.11, 77.40 106.14 1.86 17
8 12/13/2021 04:13:12 -81.09, -24.07 73.75 12/13/2021 04:14:02 -81.08, -24.25 73.76 3.17 50
9 12/13/2021 05:03:52 81.10, 143.79 106.32 12/13/2021 05:03:27 81.10, 143.75 106.30 0.62 25
10 12/15/2021 23:47:35 -81.08, 42.17 73.65 12/15/2021 23:48:17 -81.07, 42.07 73.65 1.84 42



Historial Predications of SNOs between METOP-C and LANDSAT-8
